TimeEDT,TemperatureF,Dew PointF,Humidity,Sea Level PressureIn,VisibilityMPH,Wind Direction,Wind SpeedMPH,Gust SpeedMPH,PrecipitationIn,Events,Conditions,WindDirDegrees,DateUTC
12:53 AM,64.9,64.0,97,30.14,4.0,Calm,Calm,-,N/A,,Clear,0,2013-08-19 04:53:00
1:38 AM,64.4,64.4,100,30.14,2.0,Calm,Calm,-,N/A,,Clear,0,2013-08-19 05:38:00
1:53 AM,64.0,63.0,96,30.13,3.0,Calm,Calm,-,N/A,,Clear,0,2013-08-19 05:53:00
2:53 AM,63.0,63.0,100,30.12,2.0,Calm,Calm,-,N/A,,Clear,0,2013-08-19 06:53:00
3:01 AM,62.6,62.6,100,30.13,1.2,Calm,Calm,-,N/A,,Clear,0,2013-08-19 07:01:00
3:10 AM,62.6,62.6,100,30.13,0.8,Calm,Calm,-,N/A,,Clear,0,2013-08-19 07:10:00
3:17 AM,62.6,62.6,100,30.13,2.0,Calm,Calm,-,N/A,,Clear,0,2013-08-19 07:17:00
3:29 AM,62.6,62.6,100,30.13,0.8,Calm,Calm,-,N/A,,Clear,0,2013-08-19 07:29:00
3:53 AM,62.1,62.1,100,30.12,1.2,Calm,Calm,-,N/A,,Clear,0,2013-08-19 07:53:00
4:01 AM,62.6,62.6,100,30.13,1.0,Calm,Calm,-,N/A,,Mist,0,2013-08-19 08:01:00
4:08 AM,62.6,60.8,94,30.14,0.5,Calm,Calm,-,N/A,Fog,Fog,0,2013-08-19 08:08:00
4:20 AM,60.8,60.8,100,30.14,1.2,Calm,Calm,-,N/A,,Scattered Clouds,0,2013-08-19 08:20:00
4:23 AM,62.6,60.8,94,30.14,3.0,Calm,Calm,-,N/A,,Scattered Clouds,0,2013-08-19 08:23:00
4:43 AM,62.6,60.8,94,30.13,2.5,Calm,Calm,-,N/A,,Mostly Cloudy,0,2013-08-19 08:43:00
4:53 AM,62.1,62.1,100,30.12,2.5,Calm,Calm,-,N/A,,Mostly Cloudy,0,2013-08-19 08:53:00
5:00 AM,62.6,62.6,100,30.13,4.0,Calm,Calm,-,N/A,,Overcast,0,2013-08-19 09:00:00
5:15 AM,62.6,60.8,94,30.14,1.5,ENE,3.5,-,N/A,,Overcast,70,2013-08-19 09:15:00
5:23 AM,62.6,62.6,100,30.14,0.5,Calm,Calm,-,N/A,Fog,Fog,0,2013-08-19 09:23:00
5:28 AM,62.6,62.6,100,30.14,2.0,Calm,Calm,-,N/A,,Overcast,0,2013-08-19 09:28:00
5:36 AM,62.6,62.6,100,30.14,4.0,Calm,Calm,-,N/A,,Overcast,0,2013-08-19 09:36:00
5:53 AM,64.0,63.0,96,30.13,5.0,Calm,Calm,-,N/A,,Overcast,0,2013-08-19 09:53:00
6:53 AM,64.0,63.0,96,30.14,3.0,Calm,Calm,-,N/A,,Overcast,0,2013-08-19 10:53:00
7:53 AM,64.9,64.0,97,30.15,1.0,Calm,Calm,-,N/A,,Overcast,0,2013-08-19 11:53:00
8:09 AM,64.4,64.4,100,30.16,0.5,Calm,Calm,-,N/A,Fog,Fog,0,2013-08-19 12:09:00
8:53 AM,66.0,66.0,100,30.15,0.5,Calm,Calm,-,N/A,Fog,Fog,0,2013-08-19 12:53:00
9:50 AM,66.2,66.2,100,30.15,2.0,Calm,Calm,-,N/A,,Overcast,0,2013-08-19 13:50:00
9:53 AM,66.9,66.9,100,30.14,2.0,Calm,Calm,-,N/A,,Mostly Cloudy,0,2013-08-19 13:53:00
10:15 AM,68.0,66.2,94,30.15,6.0,Calm,Calm,-,N/A,,Partly Cloudy,0,2013-08-19 14:15:00
10:53 AM,73.9,66.9,79,30.14,10.0,Calm,Calm,-,N/A,,Partly Cloudy,0,2013-08-19 14:53:00
11:53 AM,79.0,63.0,58,30.14,10.0,Calm,Calm,-,N/A,,Partly Cloudy,0,2013-08-19 15:53:00
12:53 PM,81.0,63.0,54,30.13,10.0,Variable,5.8,-,N/A,,Scattered Clouds,0,2013-08-19 16:53:00
1:53 PM,82.0,60.1,47,30.12,10.0,SE,5.8,-,N/A,,Scattered Clouds,130,2013-08-19 17:53:00
2:53 PM,82.0,59.0,45,30.11,10.0,East,3.5,-,N/A,,Partly Cloudy,100,2013-08-19 18:53:00
3:53 PM,84.0,57.9,41,30.09,10.0,NE,3.5,-,N/A,,Partly Cloudy,50,2013-08-19 19:53:00
4:53 PM,82.9,59.0,44,30.09,10.0,ENE,3.5,-,N/A,,Mostly Cloudy,60,2013-08-19 20:53:00
5:53 PM,82.9,60.1,46,30.07,10.0,East,3.5,-,N/A,,Partly Cloudy,90,2013-08-19 21:53:00
6:53 PM,82.0,62.1,51,30.07,10.0,NE,3.5,-,N/A,,Clear,50,2013-08-19 22:53:00
7:53 PM,75.0,66.0,73,30.07,10.0,Calm,Calm,-,N/A,,Clear,0,2013-08-19 23:53:00
8:53 PM,70.0,64.9,84,30.08,10.0,Calm,Calm,-,N/A,,Clear,0,2013-08-20 00:53:00
9:53 PM,66.9,64.0,90,30.10,10.0,Calm,Calm,-,N/A,,Clear,0,2013-08-20 01:53:00
10:53 PM,66.0,64.0,93,30.11,9.0,Calm,Calm,-,N/A,,Clear,0,2013-08-20 02:53:00
11:53 PM,64.9,64.0,97,30.12,7.0,Calm,Calm,-,N/A,,Clear,0,2013-08-20 03:53:00